Regional Weather Roundup
Issued by NWS

Home | Current Version | Previous Version | Graphics & Text | Print | Product List | Glossary On
Versions: 1 2 3 4 5 6 7 8 9 10 11 12 13 14 15 16 17 18 19 20 21 22 23 24 25 26 27 28 29 30 31 32 33 34 35 36 37 38 39 40 41 42 43 44 45 46 47 48 49 50
000
ASUS43 KLOT 230208
RWRIL

ILLINOIS REGIONAL WEATHER ROUNDUP
NATIONAL WEATHER SERVICE CHICAGO/ROMEOVILLE IL
900 PM CDT FRI SEP 22 2017

NOTE: "FAIR" INDICATES FEW OR NO CLOUDS BELOW 12,000 FEET WITH NO
SIGNIFICANT WEATHER AND/OR OBSTRUCTIONS TO VISIBILITY.

* THESE STATIONS ARE NOT UNDER NWS QUALITY CONTROL. THEY ALSO MAY NOT
  REPORT WEATHER SUCH AS PRECIPITATION OR FOG.

ILZ001-002-007-009-015-016-024-230300-
NORTHWEST ILLINOIS

CITY           SKY/WX    TMP DP  RH WIND       PRES   REMARKS
MOLINE         CLEAR     74  66  76 CALM      29.99R
STERLING*      CLEAR     79  66  64 SE3       30.01S HX  81
SAVANNA*       CLEAR     76  66  71 S3        30.00S
$$

ILZ003-004-008-010-011-017-018-230300-
NORTH CENTRAL ILLINOIS

CITY           SKY/WX    TMP DP  RH WIND       PRES   REMARKS
ROCKFORD       CLEAR     77  63  61 S3        30.03R
FREEPORT*      CLEAR     72  65  76 S6        30.03S
ROCHELLE*      CLEAR     71  65  81 SE6       30.03S
DE KALB*       CLEAR     74  65  73 S6        30.04S
PERU*          CLEAR     81  64  56 SE9       30.03R HX  82
$$

ILZ005-006-012>014-019>023-230300-
NORTHEAST ILLINOIS

CITY           SKY/WX    TMP DP  RH WIND       PRES   REMARKS
CHICAGO-OHARE  CLEAR     82  66  58 SE9       30.02S HX  84
CHICAGO-MIDWAY CLEAR     85  68  56 E9        30.03S HX  88
AURORA         CLEAR     77  66  68 SE5       30.03S
LANSING*       CLEAR     78  70  76 CALM      30.04S HX  80
JOLIET*        CLEAR     81  68  64 SE3       30.03S HX  84
WAUKEGAN       CLEAR     78  68  71 S6        30.02S HX  80
DUPAGE AIRPORT CLEAR     79  66  64 SE7       30.03R HX  81
KANKAKEE*      CLOUDY    78  68  73 CALM      30.04F
WHEELING       CLEAR     79  69  71 SE3       30.03F HX  81
MORRIS*        CLEAR     76  67  73 SE5       30.02R
ROMEOVILLE*    CLEAR     78  67  68 SE7       30.04S HX  80
NORTHERLY ISL    N/A     74  68  81 SE6         N/A
$$

LMZ740>746-230300-
SOUTHERN LAKE MICHIGAN

STATION/POSITION SKY/WX   TEMP    WIND        PRES    VSBY  WAVE
                          AIR SEA DIR/SP/G                  HT/PER
                          (F)     (DEG/KT/KT) (MB)    (MI)  (FT/S)
SOUTHERN BUOY              75 70  130/  8/ 10 1016.7R         0
WILMETTE HARBOR            75 72  180/  8/ 10   N/A           1/ 2
HARRISON CRIB              76     160/  6/  8   N/A
BURNHAM HARBOR             74                   N/A
CALUMET HARBOR             78     120/  6/  9 1016.6S
BURNS HARBOR               77      CALM  /  3 1017.9R
MICHIGAN CITY              79      60/  3/  3   N/A
MICHIGAN CITY 6N           75 72  100/  4/  4   N/A           0
ST. JOSEPH                 77 74  140/  4/  4 1016.9          0
$$

ILZ025>027-034>036-040-047-049-050-058-095>099-230300-
WEST-CENTRAL ILLINOIS

CITY           SKY/WX    TMP DP  RH WIND       PRES   REMARKS
QUINCY         CLEAR     78  64  61 SE6       30.00R HX  80
GALESBURG*     CLEAR     74  66  76 SE3       30.02R
MACOMB*        CLEAR     73  64  75 SE5       30.03R
JACKSONVILLE*  CLEAR     77  63  62 SE3       30.01R
PITTSFIELD*    CLEAR     77  64  65 CALM      30.02R
$$

ILZ028>032-037-038-041>044-048-051>054-059>061-230300-
CENTRAL ILLINOIS

CITY           SKY/WX    TMP DP  RH WIND       PRES   REMARKS
PONTIAC        CLOUDY    79  70  72 SE6       30.04S HX  82
BLOOMINGTON    PTCLDY    80  65  59 SE10      30.05R HX  82
DECATUR        MOCLDY    77  65  66 E6        30.03S
PEORIA         CLEAR     77  68  73 CALM      30.01S
LACON*         CLEAR     81  65  58 SE9       30.01R HX  83
LINCOLN*       PTCLDY    79  66  65 CALM      30.02S HX  81
SPRINGFIELD    CLEAR     76  65  68 CALM      30.01S
TAYLORVILLE    PTCLDY    76  67  73 CALM      30.02S
$$

ILZ033-039-045-046-055>057-062-063-230300-
EAST-CENTRAL ILLINOIS

CITY           SKY/WX    TMP DP  RH WIND       PRES   REMARKS
CHAMPAIGN      MOCLDY    79  65  62 E5        30.05R HX  81
RANTOUL*       PTCLDY    79  69  72 NE3       30.05S HX  81
MATTOON        CLEAR     78  67  68 CALM      30.03R HX  80
PARIS*         PTCLDY    73  71  95 CALM      30.06S
$$

ILZ079-100>102-230300-
SOUTHWEST ILLINOIS

CITY           SKY/WX    TMP DP  RH WIND       PRES   REMARKS
ALTON          CLEAR     73  66  78 E6        30.01R
BELLEVILLE     CLEAR     75  68  77 CALM      29.99R
CAHOKIA*       CLEAR     80  63  55 S5        30.00R HX  81
SPARTA*        CLEAR     73  67  81 CALM      30.02R
$$

ILZ064>066-069>071-074>076-080>082-084>086-088>090-092>094-230300-
SOUTH-CENTRAL ILLINOIS

CITY           SKY/WX    TMP DP  RH WIND       PRES   REMARKS
CARBONDALE     CLEAR     74  70  87 CALM      30.01R
CAIRO*         CLEAR     72  72  99 CALM      30.00S
EFFINGHAM*     CLEAR     75  67  76 CALM      30.04S
MARION         CLEAR     75  68  78 CALM      30.02S
MT. VERNON       N/A     72  69  90 CALM      30.02R
CENTRALIA*     CLEAR     74  69  84 CALM      30.01R
SALEM*         CLEAR     78  67  68 CALM      30.02R HX  80
METROPOLIS*    RAIN      73  69  88 CALM      30.01S
$$

ILZ067-068-072-073-078-083-087-091-230300-
SOUTHEAST ILLINOIS

CITY           SKY/WX    TMP DP  RH WIND       PRES   REMARKS
LAWRENCEVILLE  PTCLDY    77  71  82 N3        30.03R
FLORA*         PTCLDY    78  69  73 CALM      30.03R HX  80
FAIRFIELD*     CLEAR     74  65  75 CALM      30.01S
HARRISBURG*    CLEAR     75  67  77 CALM      30.02S
ROBINSON*      CLEAR     73  68  84 CALM      30.04R
CARMI*         CLEAR     72  68  88 CALM      30.02R
$$

ABBREVIATIONS USED IN REMARKS
   TC - TEMPERATURE IN CELSIUS
  WCI - WIND CHILL INDEX
   HX - HEAT INDEX
  VSB - VISIBILITY
$$




USA.gov is the U.S. government's official web portal to all federal, state and local government web resources and services.